EHI
8 8 7 5 4 5 6 6 6 6 6 4 3 3 3 3 3 1 1 1 1 1 1 1 0 0 0 0 0 0 0 1 2 3 3 3 3 3 3 3 1 0 0
9 8 7 6 6 6 6 6 6 6 6 4 3 3 3 3 3 2 2 2 2 2 2 2 1 0 0 0 0 0 0 0 1 2 3 3 3 3 3 3 2 1 0
8 8 7 6 6 6 6 6 6 6 6 4 3 3 3 3 3 3 3 3 3 2 2 2 1 0 0 0 0 0 0 0 0 1 1 3 3 3 3 3 3 2 1
8 8 7 7 7 7 7 6 6 6 6 4 3 3 3 3 4 4 3 2 1 1 1 1 0 0 0 0 0 0 0 0 0 0 1 2 3 3 3 3 2 1 0
9 9 9 9 9 9 8 7 7 7 5 4 3 3 3 3 3 3 2 1 0 0 0 0 0 0 0 0 0 0 0 0 0 0 1 2 3 3 3 3 2 1 0
8 8 8 9 10 10 9 9 9 7 5 4 3 3 3 3 3 2 1 0 0 0 0 0 0 0 0 0 0 0 0 0 0 0 0 1 1 2 3 3 3 2 1
6 6 6 7 8 8 8 8 8 7 5 4 3 3 3 3 1 1 0 1 1 1 0 0 0 0 0 0 0 0 0 0 0 0 0 0 0 1 2 2 2 2 1
5 5 6 6 7 7 7 7 7 7 6 4 3 3 3 2 1 0 0 1 1 1 0 0 0 0 0 0 1 1 0 0 0 0 0 0 0 0 1 1 1 1 0
5 6 5 5 6 7 6 5 6 6 6 5 4 3 3 2 1 0 0 0 0 0 0 0 0 0 0 0 1 1 0 0 0 0 0 0 0 0 0 0 0 0 0
4 4 3 3 5 6 5 4 5 6 6 6 5 4 3 2 1 0 0 0 0 0 0 0 0 0 0 0 0 0 0 0 0 0 0 0 0 0 0 0 0 0 0
3 2 1 1 3 5 5 5 5 6 6 6 6 5 4 2 1 0 0 0 0 0 0 0 0 0 0 0 0 0 0 0 0 0 0 0 0 0 0 0 0 0 0
2 1 0 2 3 4 6 6 6 6 7 7 6 5 4 2 1 0 0 0 0 0 0 0 0 0 0 0 0 0 0 0 0 1 1 1 1 1 0 0 0 0 0
1 0 0 1 2 3 5 6 5 5 6 7 6 4 3 3 1 1 1 0 0 0 0 0 0 0 0 0 0 0 0 0 0 1 2 2 2 2 1 0 0 0 0
0 0 0 1 3 3 4 5 5 5 5 6 6 5 4 3 3 3 2 1 1 1 0 0 0 0 0 0 0 0 0 0 0 1 1 2 2 2 1 0 0 0 0
0 0 0 2 3 3 3 4 5 5 5 6 6 6 5 4 4 3 3 2 2 2 1 0 0 0 0 0 0 0 0 0 0 0 0 1 1 1 0 0 0 0 0
0 0 0 1 3 3 3 3 4 4 4 4 4 5 5 4 3 2 1 1 2 2 1 1 1 1 0 0 0 0 0 0 0 0 0 0 0 0 0 0 0 0 0
0 0 0 1 2 3 3 3 3 3 3 2 2 2 2 2 1 0 0 0 1 1 1 1 2 1 0 0 0 0 0 0 0 0 0 0 0 0 0 0 0 0 0
1 1 1 2 3 4 4 4 4 4 4 3 1 0 0 0 0 0 0 0 0 0 0 1 1 0 0 0 0 0 0 0 0 0 0 0 0 0 0 0 0 0 0
2 2 2 3 5 6 6 6 5 5 6 5 3 1 0 0 0 0 0 0 0 0 0 0 0 0 0 0 0 0 0 0 0 0 0 0 0 0 0 0 0 0 0
1 1 1 3 5 6 6 6 6 6 6 6 5 3 1 1 1 1 0 1 1 1 1 1 0 0 0 0 0 0 0 0 0 0 0 0 0 0 0 0 0 0 0
0 0 0 2 5 6 6 6 6 6 6 5 5 4 2 2 2 1 0 1 2 2 2 2 1 1 1 0 0 0 0 0 0 0 0 0 0 0 0 0 0 0 0
0 0 0 1 3 5 6 6 5 5 6 6 5 4 2 2 2 1 0 0 1 1 2 2 2 2 1 0 0 0 0 0 0 0 0 0 0 0 0 0 0 0 0
0 0 0 0 1 4 5 6 6 6 7 7 6 3 1 1 2 1 0 0 0 0 1 1 2 3 2 0 0 0 0 0 0 0 0 0 0 0 0 0 0 0 0
0 0 0 0 1 2 4 4 5 6 7 8 8 4 2 1 1 1 1 1 1 1 1 0 1 2 2 1 0 0 0 0 1 1 0 0 0 1 0 0 0 0 0
0 0 0 0 0 1 2 3 4 4 5 8 8 5 2 0 1 2 2 2 2 2 2 1 1 1 1 2 1 0 0 0 0 1 1 1 1 1 0 0 0 0 0
0 0 0 0 0 0 1 3 3 3 4 6 7 4 2 0 1 2 3 2 2 3 3 2 2 1 1 2 2 1 0 0 0 0 1 2 2 2 1 0 0 0 0
Wind_Speed
4 3 3 3 3 3 3 3 2 2 2 2 2 2 2 1 1 1 1 1 1 0 0 1 0 0 0 0 0 1 1 1 1 2 1 2 2 2 3 2 2 1 2
4 3 3 3 3 3 3 2 2 2 2 2 2 2 1 1 1 2 1 1 1 1 0 1 0 0 1 0 0 0 0 1 2 2 1 1 1 2 3 2 2 2 2
4 4 3 3 3 3 3 2 2 2 2 2 2 2 1 1 1 1 2 1 1 1 1 1 1 1 0 0 1 0 0 0 0 1 1 1 1 2 2 2 3 2 2
4 4 3 2 3 3 3 3 3 3 2 2 2 2 2 2 2 2 2 1 1 1 1 1 1 2 2 1 1 1 1 1 1 1 0 1 1 1 1 2 2 2 2
3 3 3 2 2 3 3 3 3 3 3 2 2 2 2 2 2 2 2 2 1 1 1 1 1 1 2 2 1 1 2 1 1 1 0 1 1 1 1 1 2 2 2
4 3 2 2 2 2 3 3 3 2 2 2 2 2 2 3 2 3 3 2 2 2 1 1 1 1 1 1 2 2 3 3 2 1 1 1 2 2 1 1 1 1 1
3 2 2 2 3 2 3 3 3 3 3 3 3 3 3 4 4 4 4 3 2 2 2 2 1 1 1 1 1 1 1 2 3 3 3 3 3 3 2 1 1 1 2
3 2 2 2 2 2 2 3 4 3 3 3 3 4 4 4 4 5 4 3 3 3 3 3 3 2 2 2 2 1 1 2 2 3 3 4 3 3 3 3 2 2 1
2 2 2 3 2 2 3 4 3 3 3 3 3 3 4 4 5 5 5 3 3 3 3 3 3 4 4 4 3 2 2 2 2 2 3 3 2 2 2 1 1 1 1
3 3 2 3 3 3 3 3 3 3 3 3 3 3 4 4 5 5 6 3 3 3 3 3 4 4 4 5 4 4 3 3 2 1 2 2 2 1 2 2 2 2 1
2 2 2 2 2 2 2 2 2 2 2 2 3 3 4 4 5 5 6 4 4 4 3 3 3 5 5 5 5 4 5 3 2 2 2 2 1 1 2 2 3 3 2
2 2 2 2 2 1 1 1 1 2 2 2 3 3 3 3 4 5 6 7 6 5 4 4 3 5 5 5 4 5 5 3 1 2 2 2 2 2 2 2 3 3 3
1 1 2 1 1 1 2 2 1 2 2 2 3 3 3 3 3 5 6 6 7 5 4 5 4 4 4 4 5 5 3 2 2 3 3 3 3 3 2 1 1 2 2
2 2 2 1 1 1 2 2 2 3 3 3 3 4 3 3 3 2 3 3 4 4 2 2 2 2 2 3 2 3 3 3 3 4 3 3 2 2 2 1 1 1 1
2 2 2 2 2 2 2 2 3 4 5 4 4 4 4 4 5 5 4 3 3 3 2 1 1 1 1 2 2 2 2 2 3 3 3 3 2 2 2 1 1 1 2
3 3 2 2 2 2 2 2 4 5 5 5 6 5 5 5 5 5 6 5 5 6 4 2 2 3 3 3 3 3 3 3 3 3 3 3 3 3 2 2 2 2 2
3 3 2 2 2 2 2 2 3 3 3 4 5 5 6 5 5 5 5 4 4 6 3 3 3 4 4 4 4 4 4 3 3 3 4 4 3 3 2 2 2 2 2
2 3 3 2 2 2 2 2 2 2 3 3 3 4 4 4 3 4 5 4 2 3 3 3 4 4 4 4 4 4 3 3 3 3 3 3 3 3 3 3 3 3 3
2 2 2 2 2 2 2 2 2 3 3 3 2 2 2 1 2 2 4 3 3 4 4 4 4 4 4 4 4 4 4 3 3 3 3 3 3 3 3 3 3 4 3
1 2 2 2 2 2 2 3 3 3 3 3 3 2 1 1 1 1 2 3 3 4 4 4 3 3 3 3 3 3 3 3 3 3 3 3 3 3 4 4 3 3 3
1 1 2 2 2 2 2 3 3 3 3 3 4 3 4 3 3 3 3 4 4 4 4 3 3 3 3 3 3 3 4 3 3 3 3 3 3 3 3 3 3 3 3
1 2 2 2 2 2 3 3 3 3 4 4 3 3 4 3 3 3 3 4 4 4 3 3 4 3 3 3 3 3 4 4 3 3 3 3 3 3 3 3 3 3 3
1 1 2 2 2 2 2 2 3 3 3 3 3 2 2 3 3 3 3 3 3 3 3 3 3 3 3 3 3 4 4 4 4 4 4 4 3 3 3 4 4 4 4
1 2 2 2 2 2 2 2 3 3 3 3 3 2 2 2 3 3 3 3 3 3 3 3 3 4 4 3 3 3 4 4 4 4 5 5 4 4 4 4 4 5 4
1 1 2 2 2 2 2 2 3 3 3 2 2 2 2 2 2 3 2 2 3 3 3 3 2 3 4 4 4 4 4 4 4 3 3 4 5 5 4 4 4 4 4
1 2 2 2 2 2 2 2 2 3 2 2 2 2 2 2 2 2 2 2 2 2 3 3 3 4 4 4 4 4 3 4 4 4 3 3 4 4 4 3 4 4 4
Wind_Direction
167 164 161 163 164 159 167 184 184 172 161 163 161 146 142 147 137 127 137 133 123 67 26 125 96 217 121 82 125 136 153 173 206 271 294 329 345 351 346 347 347 335 345
164 155 157 156 153 162 177 183 174 166 164 164 158 154 161 152 164 166 187 177 167 173 198 127 140 135 94 88 100 88 159 188 187 234 284 317 325 333 332 336 351 359 355
150 149 141 159 165 175 183 173 172 177 173 170 166 175 188 189 192 196 184 188 184 198 205 194 209 147 132 118 112 81 20 94 141 188 265 331 322 338 336 341 357 351 352
148 152 155 180 183 178 171 172 177 180 181 181 182 193 199 198 200 201 181 177 184 217 216 203 200 186 190 188 167 169 137 113 108 137 260 323 304 320 339 332 340 347 340
150 161 182 185 183 165 163 177 174 177 186 185 183 195 206 203 208 193 188 182 184 203 234 226 207 194 187 180 166 173 153 140 143 159 237 315 312 323 318 306 309 322 330
162 175 177 163 163 177 177 178 173 175 177 176 196 203 211 221 211 195 181 182 190 198 225 257 254 221 200 173 167 167 162 166 178 182 218 241 264 263 277 293 297 323 311
160 166 171 177 188 198 198 180 189 194 184 190 210 212 221 227 209 201 191 182 192 210 219 231 246 237 208 189 153 126 186 190 185 189 208 233 242 238 234 254 251 254 260
168 170 168 183 205 203 197 208 207 204 202 207 214 218 222 230 207 198 194 190 201 222 226 223 221 231 219 189 180 195 249 249 237 221 221 237 245 233 219 229 241 257 284
187 191 194 195 205 209 215 230 217 204 213 217 217 220 221 235 214 201 190 189 211 234 235 228 219 223 219 194 180 203 260 278 266 233 236 255 265 236 191 169 178 188 280
206 205 201 198 202 218 226 238 222 201 211 214 225 227 223 230 223 209 193 194 213 234 241 238 229 223 217 197 194 201 231 254 265 287 294 299 282 259 192 200 202 200 219
195 192 195 197 205 221 225 242 219 200 204 213 235 245 235 232 231 222 205 203 214 224 232 235 232 223 222 213 209 215 226 229 236 248 272 280 276 258 234 223 214 208 207
180 197 212 217 217 207 205 236 229 197 207 225 240 260 255 240 233 228 218 216 212 215 230 235 235 227 227 225 221 226 228 221 221 239 259 265 261 259 255 239 230 231 233
197 229 240 241 224 198 198 207 225 214 210 229 232 246 261 258 246 235 227 221 212 215 231 236 241 236 232 229 227 226 226 214 213 228 243 252 251 251 249 243 230 239 250
209 231 237 238 261 253 228 212 211 229 221 224 230 240 252 256 248 227 217 212 207 212 230 232 222 212 221 232 238 236 229 224 219 230 243 250 250 240 230 219 214 213 240
217 225 231 231 241 256 257 243 232 236 217 215 229 230 231 246 242 217 205 209 202 193 178 193 196 206 231 252 254 246 234 228 229 231 235 239 242 239 235 221 203 197 220
204 220 222 223 235 250 262 291 272 252 244 232 233 231 236 238 241 229 220 209 197 172 165 200 219 225 232 238 242 245 239 235 235 232 232 234 236 233 231 217 210 209 222
201 214 218 220 226 239 240 247 281 301 283 260 251 242 238 238 229 220 209 192 178 165 182 212 223 229 238 239 238 238 239 239 233 230 232 235 236 232 226 222 213 215 227
208 220 223 220 224 239 244 245 247 263 285 289 277 255 243 228 219 210 186 155 165 184 212 222 230 234 240 242 241 240 241 240 230 233 239 239 232 227 222 222 220 224 231
213 218 224 223 220 227 241 248 256 258 264 274 284 296 268 201 168 171 167 184 202 212 216 224 230 233 238 243 245 239 236 237 234 230 233 232 230 226 229 230 226 222 225
247 242 247 238 230 222 224 228 234 242 257 267 260 252 219 148 166 186 197 215 219 225 228 231 235 238 240 244 245 241 241 241 236 233 234 232 228 225 230 232 228 224 228
255 256 253 247 237 231 228 229 235 239 246 256 261 244 208 208 217 214 215 221 223 230 234 234 235 237 240 244 243 239 238 239 234 232 234 234 229 227 231 229 228 228 232
240 246 247 242 238 232 235 235 235 241 248 256 266 253 215 219 228 230 232 235 234 232 230 226 231 232 231 228 227 233 240 243 239 234 235 236 236 235 232 228 229 230 231
235 247 260 258 244 240 248 249 243 245 251 256 257 251 235 232 232 233 236 240 238 241 239 232 237 243 236 228 227 228 236 242 240 233 231 236 239 241 235 230 231 232 234
242 247 255 260 256 245 247 254 252 253 253 253 252 245 244 239 242 245 243 238 238 248 249 242 241 245 242 238 238 238 240 243 239 232 228 234 240 243 237 233 232 232 233
247 253 256 257 255 253 251 258 264 267 264 256 254 256 256 250 252 261 263 250 244 249 254 253 247 243 247 249 253 254 251 242 240 237 225 226 235 237 235 236 238 236 234
252 254 256 256 255 254 250 257 266 270 269 271 267 263 261 259 255 256 258 258 256 255 254 252 252 250 249 246 253 258 251 244 235 228 224 226 230 235 236 237 239 235 238